SCP
0 0 0 0 0 0 0 0 0 0 0 0 0 0 0 0 0 0 0 0 0 0 0 0 0 0 0 0 0 0 0 0 0 0 0 0 0 0 0 0 0 0 0
0 0 0 0 0 0 0 0 0 0 0 0 0 0 0 0 0 0 0 0 0 0 0 0 0 0 0 0 0 0 0 0 0 0 0 0 0 0 0 0 0 0 0
0 0 0 0 0 0 0 0 0 0 0 0 0 0 0 0 0 0 0 0 0 0 0 0 0 0 0 0 0 0 0 0 0 0 0 0 0 0 0 0 0 0 0
0 0 0 0 0 0 0 0 0 0 0 0 0 0 0 0 0 0 0 0 0 0 0 0 0 0 0 0 0 0 0 0 0 0 0 0 0 0 -0 0 0 0 0
0 0 0 0 0 0 0 0 0 0 0 0 0 0 0 0 0 0 0 0 0 0 0 0 0 0 0 0 0 0 0 0 0 0 0 0 0 0 0 0 0 0 0
0 0 0 0 0 0 0 0 0 0 0 0 0 0 0 0 0 0 0 0 0 0 0 0 0 0 0 0 0 0 0 0 0 0 0 0 0 0 0 0 0 0 0
0 0 0 0 0 0 0 0 0 0 0 0 0 0 0 0 0 0 0 0 0 0 -0 0 0 0 0 0 0 0 0 0 0 0 0 0 0 0 0 0 0 0 0
0 0 0 0 0 0 0 0 0 0 0 0 0 0 0 0 0 0 0 0 0 -0 -0 -0 -0 0 0 0 0 0 0 0 0 0 0 0 0 0 0 0 0 0 0
0 0 0 0 0 0 0 0 0 0 0 0 0 0 0 0 0 0 0 0 -0 -0 -0 -0 0 0 0 0 0 0 0 0 0 0 0 0 0 0 0 0 0 0 0
0 0 0 0 0 0 0 0 0 0 0 0 0 0 0 0 0 -0 0 0 0 0 -0 -0 -0 -0 0 0 0 0 0 0 0 0 0 0 0 0 0 0 0 0 0
0 0 0 0 0 0 0 0 0 0 0 0 0 0 0 -0 -0 -0 0 0 0 0 0 0 0 0 0 0 0 0 0 0 0 0 0 0 0 0 0 0 0 0 0
0 0 0 0 0 0 0 0 0 0 0 0 0 0 0 0 0 0 0 0 0 0 0 0 0 -0 0 0 0 0 0 0 0 0 0 0 0 0 0 0 0 0 0
0 -0 -0 0 0 0 0 0 0 0 0 0 0 0 0 0 0 0 -0 0 0 0 0 0 0 0 0 0 0 0 0 0 0 0 0 0 0 0 0 0 0 0 0
0 -0 0 0 0 0 0 0 0 0 0 0 0 0 0 0 0 0 0 0 0 0 0 0 0 0 0 0 0 0 0 0 0 0 0 0 0 0 0 0 0 0 0
0 0 0 0 0 0 0 0 0 0 0 0 0 0 0 0 0 0 0 0 0 0 0 0 0 0 0 0 0 0 0 0 0 0 0 0 0 0 0 0 0 0 0
0 0 0 0 0 0 0 0 0 0 0 0 0 0 0 0 0 0 0 0 0 0 0 0 0 0 0 0 0 0 0 0 0 0 0 0 0 0 0 0 0 0 0
0 0 0 0 0 0 0 0 0 0 0 0 0 0 0 0 0 0 0 0 0 0 0 0 0 0 0 0 0 0 0 0 0 0 0 0 0 0 0 0 0 0 0
0 0 0 0 0 0 0 0 0 0 0 0 0 0 0 0 0 0 -0 0 0 0 0 0 0 0 0 0 0 0 0 0 0 0 0 0 0 0 0 0 0 0 0
0 0 0 0 0 0 0 0 0 0 0 0 0 0 0 0 0 0 0 0 0 -0 -0 0 0 0 0 0 0 0 0 0 0 0 0 0 0 0 0 0 0 0 0
0 0 0 0 0 0 0 0 0 0 0 0 0 0 0 0 0 0 0 0 0 0 0 -0 -0 0 0 0 0 0 0 0 0 0 0 0 0 0 0 0 0 0 0
0 0 0 0 0 0 -0 0 0 0 0 0 0 0 0 0 0 -0 -0 -0 0 0 -0 0 0 0 0 0 0 0 0 0 0 0 0 0 0 0 0 0 0 0 0
0 0 -0 -0 -0 0 0 0 0 0 0 0 0 0 0 0 0 -0 -0 -0 -0 0 0 0 0 0 0 0 0 0 0 0 0 0 0 0 0 0 0 0 0 0 0
0 0 -0 -0 0 0 0 0 0 0 0 0 0 0 0 0 0 0 0 0 0 0 0 0 0 0 0 0 0 0 0 0 0 0 0 0 0 0 0 0 0 0 0
0 0 0 0 0 0 0 0 0 0 0 0 0 0 0 0 0 0 0 0 0 0 0 0 0 0 0 0 0 0 0 0 0 0 0 0 0 0 0 0 0 0 0
0 0 0 0 0 0 0 0 0 0 0 0 0 0 0 0 0 0 0 0 0 0 0 0 0 0 0 0 0 0 0 0 0 0 0 0 0 0 0 0 0 0 0
0 0 0 0 0 0 0 0 0 0 0 0 0 0 0 0 0 0 0 0 0 0 0 0 0 0 0 0 0 0 0 0 0 0 0 0 0 0 0 0 0 0 0
Wind_Speed_500mb
13 15 15 16 15 19 21 22 27 29 32 32 30 26 25 24 25 25 25 21 21 20 16 15 17 16 13 13 14 11 10 15 15 15 15 18 15 13 14 9 10 13 14
24 28 34 33 28 26 25 29 31 29 26 23 23 20 22 22 22 22 19 17 18 15 11 9 5 5 7 10 10 12 12 7 5 5 10 11 6 8 7 9 11 10 11
29 36 33 28 26 24 25 26 22 22 21 19 16 16 16 17 15 13 14 17 20 25 20 15 14 9 12 17 16 9 12 16 14 10 11 2 7 6 8 13 21 24 24
25 30 32 33 34 30 23 21 18 17 15 12 8 8 10 11 9 7 10 14 22 27 28 14 18 20 23 25 28 30 17 5 6 7 8 9 17 21 24 26 28 24 20
26 27 24 24 25 23 22 18 15 12 9 8 6 5 7 14 21 13 13 18 24 27 26 17 16 19 20 21 25 29 27 29 27 22 21 24 32 31 34 34 33 33 25
26 25 19 19 23 22 19 18 13 7 5 4 13 15 18 28 30 27 20 20 29 33 28 20 12 16 18 17 21 23 25 31 36 39 32 29 32 30 32 37 38 48 52
22 22 19 21 23 21 18 6 5 7 12 19 24 26 37 37 28 28 27 27 32 36 38 29 16 14 15 14 16 18 19 24 24 27 31 25 27 30 32 35 34 33 42
18 22 21 24 24 20 8 7 10 12 17 20 20 23 25 23 17 15 15 18 23 35 33 35 36 31 25 19 20 22 22 22 19 22 27 27 26 27 28 34 34 33 31
23 27 30 25 20 15 10 13 13 15 18 20 20 21 19 18 17 17 12 13 12 26 25 26 30 29 33 29 15 15 18 16 19 22 26 25 28 30 23 33 31 35 38
30 29 25 18 21 15 11 10 12 15 18 20 24 28 24 20 20 24 14 4 7 9 17 19 23 27 24 20 18 19 17 18 17 18 21 30 27 25 31 34 33 28 33
31 26 25 24 10 7 9 5 15 16 17 19 19 15 12 11 10 13 15 6 4 4 10 13 17 20 17 17 20 14 17 19 18 17 20 23 25 30 30 33 33 28 28
34 30 26 19 15 13 14 18 12 8 9 7 5 7 2 10 1 3 8 12 9 5 5 7 9 17 10 16 21 17 17 18 21 19 24 28 30 28 30 28 33 29 28
34 33 27 24 22 25 24 18 8 5 0 4 9 16 17 16 11 10 10 13 14 12 5 2 5 8 9 13 18 19 17 21 24 27 26 33 29 24 26 28 33 33 21
33 28 20 19 15 10 6 3 4 2 3 5 6 6 10 22 20 18 21 18 13 8 6 2 1 4 9 11 12 20 18 23 23 25 27 24 31 26 28 34 43 45 39
32 24 19 16 13 8 6 5 9 4 2 4 2 6 10 21 29 30 21 10 2 10 7 5 3 3 8 9 12 18 17 19 20 24 26 22 30 33 31 31 41 51 43
35 24 19 14 10 5 8 11 6 3 3 5 5 11 13 19 10 3 4 6 11 11 4 1 1 11 9 8 13 15 17 21 20 21 25 26 32 33 34 31 35 45 49
37 29 24 19 13 7 13 8 2 5 5 2 4 8 12 20 14 12 14 13 12 5 3 6 12 6 6 9 15 15 14 15 16 19 23 25 27 32 31 31 31 34 42
36 31 25 19 14 12 11 5 6 2 2 3 6 5 9 11 21 11 4 3 3 1 8 16 5 5 7 12 19 13 10 13 17 18 16 20 26 32 30 29 32 32 37
30 35 25 19 15 12 13 6 6 2 8 10 12 11 12 4 2 6 10 11 13 17 14 11 5 2 10 14 17 19 12 19 19 14 7 11 22 33 34 30 29 30 30
39 29 23 18 14 10 10 10 10 8 8 10 7 15 6 5 5 6 4 2 10 14 5 6 7 4 9 19 18 13 15 11 13 15 9 11 16 21 30 38 30 31 37
29 27 22 19 16 15 12 10 7 5 2 2 9 5 7 7 12 11 16 18 15 7 10 7 6 2 15 26 12 13 17 15 11 10 8 9 15 22 24 24 28 32 30
20 17 28 21 14 14 15 11 8 6 4 3 4 8 7 4 5 9 8 8 6 2 12 10 12 19 25 21 17 19 19 9 5 5 5 10 11 17 25 25 22 29 36
27 24 22 16 15 13 19 16 12 10 5 4 6 8 8 5 3 3 2 1 2 6 9 12 17 17 14 13 17 15 12 3 5 7 6 11 13 17 20 27 27 24 29
21 19 21 21 21 19 20 13 9 12 12 7 8 8 8 6 2 4 3 3 7 8 12 11 19 14 15 17 16 15 9 6 7 8 10 12 13 11 18 20 22 25 27
24 10 23 26 8 21 21 15 13 12 16 12 9 7 9 8 6 5 4 6 8 10 15 13 16 10 16 15 15 12 6 7 4 5 7 12 13 12 14 19 26 24 19
22 11 28 27 16 15 19 11 17 19 13 11 8 4 8 10 10 9 9 9 14 15 14 16 16 14 16 15 15 11 4 7 2 9 12 12 18 11 10 14 20 25 27
Wind_Direction_500mb
131 119 118 107 106 107 94 93 101 100 98 98 95 93 93 87 77 72 69 55 30 30 35 30 39 28 32 36 33 32 44 74 86 69 58 74 77 74 69 58 14 7 357
109 110 107 105 104 100 101 107 119 116 109 103 103 103 95 87 69 56 46 26 4 12 21 342 18 5 9 21 12 18 6 0 34 98 98 55 31 44 13 348 337 332 323
115 115 114 110 112 107 108 110 109 103 99 98 88 75 71 78 74 54 32 29 49 43 42 46 59 41 45 43 33 46 66 79 93 119 112 11 327 322 298 303 300 299 292
111 124 124 123 124 127 119 117 113 106 99 87 66 71 67 66 50 29 9 26 40 43 34 55 55 58 60 59 55 56 56 56 61 56 42 7 353 344 345 337 333 337 338
115 110 105 128 130 121 123 118 105 99 87 92 89 80 62 66 53 33 25 33 30 26 37 56 54 52 52 52 48 52 60 60 58 51 42 36 32 28 22 16 13 16 18
138 115 121 132 133 126 115 103 91 62 51 98 98 92 82 75 77 70 58 50 66 53 46 52 58 49 41 34 42 50 53 54 46 41 44 41 35 30 24 16 16 19 11
134 127 134 143 140 136 134 120 54 67 106 105 96 99 97 95 83 79 72 66 60 53 53 53 45 38 27 26 46 57 55 38 33 22 29 24 22 17 15 16 19 21 12
135 142 150 157 151 145 138 117 82 97 118 112 102 94 91 87 65 50 44 47 52 45 58 56 50 49 51 63 74 65 55 38 33 25 25 25 16 7 6 3 2 3 7
162 160 157 160 160 149 122 78 81 108 112 107 94 80 65 50 29 24 38 40 40 36 49 53 46 43 51 50 41 54 46 33 21 21 19 14 12 12 10 355 352 351 2
160 157 154 155 144 134 137 118 85 95 109 103 97 97 91 83 57 52 36 325 338 0 51 31 28 29 19 23 35 46 37 29 21 9 356 8 15 15 9 5 4 4 4
155 150 148 144 118 139 157 107 110 95 115 118 119 114 97 65 54 46 45 11 301 254 321 25 8 3 5 12 2 46 37 30 18 8 8 12 15 13 10 12 4 353 353
141 134 123 121 117 128 138 130 109 92 112 146 189 203 228 347 278 33 22 4 350 313 303 0 342 355 41 28 42 37 31 9 8 1 8 7 5 13 17 12 8 3 353
140 126 112 111 107 106 131 134 134 200 70 16 314 254 267 271 279 286 314 313 318 314 316 348 313 18 48 32 34 31 18 8 11 11 11 9 13 8 6 10 6 2 0
143 132 130 130 135 131 144 152 137 77 0 300 311 284 264 256 265 273 299 304 301 320 176 163 2 66 30 24 24 8 355 359 14 16 17 23 25 26 16 20 21 16 14
156 146 132 128 125 132 142 184 203 191 97 28 35 344 309 266 266 277 286 301 305 142 134 150 8 79 15 34 15 1 6 4 22 23 21 28 29 29 20 18 17 14 12
169 163 165 154 148 159 192 182 145 180 246 287 317 2 7 3 322 293 117 109 127 124 137 2 158 85 33 32 14 5 4 359 8 20 21 17 21 10 10 23 17 16 15
179 178 185 185 167 176 145 140 242 272 252 255 325 12 20 27 49 93 101 120 124 125 127 34 110 50 49 25 3 356 352 3 2 4 7 15 20 19 19 20 9 14 16
188 192 185 186 197 213 190 194 231 179 220 265 319 310 355 36 63 85 128 173 211 177 154 147 84 74 28 351 342 334 330 326 348 355 3 15 17 22 14 8 5 6 13
192 181 176 168 217 227 216 209 118 220 266 273 282 298 277 282 139 113 87 79 65 159 139 131 38 96 336 352 345 333 346 337 340 351 347 12 20 24 10 5 2 8 359
168 167 168 187 196 192 184 202 227 260 268 266 289 313 229 188 189 207 155 77 114 132 32 272 243 213 341 342 334 342 337 358 2 6 71 42 24 30 31 35 33 16 6
172 191 192 188 183 175 227 255 217 223 146 139 22 88 114 86 65 87 95 111 114 72 17 71 119 311 327 340 343 348 348 336 354 16 95 48 51 45 33 17 25 27 9
158 172 183 173 187 208 206 193 211 218 169 148 64 98 132 150 102 64 112 136 142 311 314 303 306 319 322 325 335 333 333 355 22 22 119 38 21 20 18 17 30 31 24
181 175 168 189 201 204 198 207 220 229 236 210 187 171 180 194 186 165 52 194 336 346 319 306 326 331 344 336 334 345 355 49 56 76 66 34 4 3 29 33 18 7 6
187 209 209 206 209 229 196 183 222 231 220 246 271 256 252 248 255 235 273 281 278 304 333 335 343 349 355 357 2 8 26 104 85 55 48 38 2 349 13 17 18 15 24
192 166 204 202 232 199 200 204 214 212 234 257 281 247 193 206 232 329 285 279 292 306 314 329 352 356 0 0 2 8 47 130 99 24 6 350 2 13 19 13 3 0 0
191 221 217 206 234 207 196 210 218 229 235 252 283 238 213 232 245 296 312 296 297 281 299 332 340 343 352 357 0 6 36 173 263 327 322 320 333 348 349 8 6 358 3
Wind_Speed_850mb
13 15 15 16 15 19 21 22 27 29 32 32 30 26 25 24 25 25 25 21 21 20 16 15 17 16 13 13 14 11 10 15 15 15 15 18 15 13 14 9 10 13 14
24 28 34 33 28 26 25 29 31 29 26 23 23 20 22 22 22 22 19 17 18 15 11 9 5 5 7 10 10 12 12 7 5 5 10 11 6 8 7 9 11 10 11
29 36 33 28 26 24 25 26 22 22 21 19 16 16 16 17 15 13 14 17 20 25 20 15 14 9 12 17 16 9 12 16 14 10 11 2 7 6 8 13 21 24 24
25 30 32 33 34 30 23 21 18 17 15 12 8 8 10 11 9 7 10 14 22 27 28 14 18 20 23 25 28 30 17 5 6 7 8 9 17 21 24 26 28 24 20
26 27 24 24 25 23 22 18 15 12 9 8 6 5 7 14 21 13 13 18 24 27 26 17 16 19 20 21 25 29 27 29 27 22 21 24 32 31 34 34 33 33 25
26 25 19 19 23 22 19 18 13 7 5 4 13 15 18 28 30 27 20 20 29 33 28 20 12 16 18 17 21 23 25 31 36 39 32 29 32 30 32 37 38 48 52
22 22 19 21 23 21 18 6 5 7 12 19 24 26 37 37 28 28 27 27 32 36 38 29 16 14 15 14 16 18 19 24 24 27 31 25 27 30 32 35 34 33 42
18 22 21 24 24 20 8 7 10 12 17 20 20 23 25 23 17 15 15 18 23 35 33 35 36 31 25 19 20 22 22 22 19 22 27 27 26 27 28 34 34 33 31
23 27 30 25 20 15 10 13 13 15 18 20 20 21 19 18 17 17 12 13 12 26 25 26 30 29 33 29 15 15 18 16 19 22 26 25 28 30 23 33 31 35 38
30 29 25 18 21 15 11 10 12 15 18 20 24 28 24 20 20 24 14 4 7 9 17 19 23 27 24 20 18 19 17 18 17 18 21 30 27 25 31 34 33 28 33
31 26 25 24 10 7 9 5 15 16 17 19 19 15 12 11 10 13 15 6 4 4 10 13 17 20 17 17 20 14 17 19 18 17 20 23 25 30 30 33 33 28 28
34 30 26 19 15 13 14 18 12 8 9 7 5 7 2 10 1 3 8 12 9 5 5 7 9 17 10 16 21 17 17 18 21 19 24 28 30 28 30 28 33 29 28
34 33 27 24 22 25 24 18 8 5 0 4 9 16 17 16 11 10 10 13 14 12 5 2 5 8 9 13 18 19 17 21 24 27 26 33 29 24 26 28 33 33 21
33 28 20 19 15 10 6 3 4 2 3 5 6 6 10 22 20 18 21 18 13 8 6 2 1 4 9 11 12 20 18 23 23 25 27 24 31 26 28 34 43 45 39
32 24 19 16 13 8 6 5 9 4 2 4 2 6 10 21 29 30 21 10 2 10 7 5 3 3 8 9 12 18 17 19 20 24 26 22 30 33 31 31 41 51 43
35 24 19 14 10 5 8 11 6 3 3 5 5 11 13 19 10 3 4 6 11 11 4 1 1 11 9 8 13 15 17 21 20 21 25 26 32 33 34 31 35 45 49
37 29 24 19 13 7 13 8 2 5 5 2 4 8 12 20 14 12 14 13 12 5 3 6 12 6 6 9 15 15 14 15 16 19 23 25 27 32 31 31 31 34 42
36 31 25 19 14 12 11 5 6 2 2 3 6 5 9 11 21 11 4 3 3 1 8 16 5 5 7 12 19 13 10 13 17 18 16 20 26 32 30 29 32 32 37
30 35 25 19 15 12 13 6 6 2 8 10 12 11 12 4 2 6 10 11 13 17 14 11 5 2 10 14 17 19 12 19 19 14 7 11 22 33 34 30 29 30 30
39 29 23 18 14 10 10 10 10 8 8 10 7 15 6 5 5 6 4 2 10 14 5 6 7 4 9 19 18 13 15 11 13 15 9 11 16 21 30 38 30 31 37
29 27 22 19 16 15 12 10 7 5 2 2 9 5 7 7 12 11 16 18 15 7 10 7 6 2 15 26 12 13 17 15 11 10 8 9 15 22 24 24 28 32 30
20 17 28 21 14 14 15 11 8 6 4 3 4 8 7 4 5 9 8 8 6 2 12 10 12 19 25 21 17 19 19 9 5 5 5 10 11 17 25 25 22 29 36
27 24 22 16 15 13 19 16 12 10 5 4 6 8 8 5 3 3 2 1 2 6 9 12 17 17 14 13 17 15 12 3 5 7 6 11 13 17 20 27 27 24 29
21 19 21 21 21 19 20 13 9 12 12 7 8 8 8 6 2 4 3 3 7 8 12 11 19 14 15 17 16 15 9 6 7 8 10 12 13 11 18 20 22 25 27
24 10 23 26 8 21 21 15 13 12 16 12 9 7 9 8 6 5 4 6 8 10 15 13 16 10 16 15 15 12 6 7 4 5 7 12 13 12 14 19 26 24 19
22 11 28 27 16 15 19 11 17 19 13 11 8 4 8 10 10 9 9 9 14 15 14 16 16 14 16 15 15 11 4 7 2 9 12 12 18 11 10 14 20 25 27
Wind_Direction_850mb
131 119 118 107 106 107 94 93 101 100 98 98 95 93 93 87 77 72 69 55 30 30 35 30 39 28 32 36 33 32 44 74 86 69 58 74 77 74 69 58 14 7 357
109 110 107 105 104 100 101 107 119 116 109 103 103 103 95 87 69 56 46 26 4 12 21 342 18 5 9 21 12 18 6 0 34 98 98 55 31 44 13 348 337 332 323
115 115 114 110 112 107 108 110 109 103 99 98 88 75 71 78 74 54 32 29 49 43 42 46 59 41 45 43 33 46 66 79 93 119 112 11 327 322 298 303 300 299 292
111 124 124 123 124 127 119 117 113 106 99 87 66 71 67 66 50 29 9 26 40 43 34 55 55 58 60 59 55 56 56 56 61 56 42 7 353 344 345 337 333 337 338
115 110 105 128 130 121 123 118 105 99 87 92 89 80 62 66 53 33 25 33 30 26 37 56 54 52 52 52 48 52 60 60 58 51 42 36 32 28 22 16 13 16 18
138 115 121 132 133 126 115 103 91 62 51 98 98 92 82 75 77 70 58 50 66 53 46 52 58 49 41 34 42 50 53 54 46 41 44 41 35 30 24 16 16 19 11
134 127 134 143 140 136 134 120 54 67 106 105 96 99 97 95 83 79 72 66 60 53 53 53 45 38 27 26 46 57 55 38 33 22 29 24 22 17 15 16 19 21 12
135 142 150 157 151 145 138 117 82 97 118 112 102 94 91 87 65 50 44 47 52 45 58 56 50 49 51 63 74 65 55 38 33 25 25 25 16 7 6 3 2 3 7
162 160 157 160 160 149 122 78 81 108 112 107 94 80 65 50 29 24 38 40 40 36 49 53 46 43 51 50 41 54 46 33 21 21 19 14 12 12 10 355 352 351 2
160 157 154 155 144 134 137 118 85 95 109 103 97 97 91 83 57 52 36 325 338 0 51 31 28 29 19 23 35 46 37 29 21 9 356 8 15 15 9 5 4 4 4
155 150 148 144 118 139 157 107 110 95 115 118 119 114 97 65 54 46 45 11 301 254 321 25 8 3 5 12 2 46 37 30 18 8 8 12 15 13 10 12 4 353 353
141 134 123 121 117 128 138 130 109 92 112 146 189 203 228 347 278 33 22 4 350 313 303 0 342 355 41 28 42 37 31 9 8 1 8 7 5 13 17 12 8 3 353
140 126 112 111 107 106 131 134 134 200 70 16 314 254 267 271 279 286 314 313 318 314 316 348 313 18 48 32 34 31 18 8 11 11 11 9 13 8 6 10 6 2 0
143 132 130 130 135 131 144 152 137 77 0 300 311 284 264 256 265 273 299 304 301 320 176 163 2 66 30 24 24 8 355 359 14 16 17 23 25 26 16 20 21 16 14
156 146 132 128 125 132 142 184 203 191 97 28 35 344 309 266 266 277 286 301 305 142 134 150 8 79 15 34 15 1 6 4 22 23 21 28 29 29 20 18 17 14 12
169 163 165 154 148 159 192 182 145 180 246 287 317 2 7 3 322 293 117 109 127 124 137 2 158 85 33 32 14 5 4 359 8 20 21 17 21 10 10 23 17 16 15
179 178 185 185 167 176 145 140 242 272 252 255 325 12 20 27 49 93 101 120 124 125 127 34 110 50 49 25 3 356 352 3 2 4 7 15 20 19 19 20 9 14 16
188 192 185 186 197 213 190 194 231 179 220 265 319 310 355 36 63 85 128 173 211 177 154 147 84 74 28 351 342 334 330 326 348 355 3 15 17 22 14 8 5 6 13
192 181 176 168 217 227 216 209 118 220 266 273 282 298 277 282 139 113 87 79 65 159 139 131 38 96 336 352 345 333 346 337 340 351 347 12 20 24 10 5 2 8 359
168 167 168 187 196 192 184 202 227 260 268 266 289 313 229 188 189 207 155 77 114 132 32 272 243 213 341 342 334 342 337 358 2 6 71 42 24 30 31 35 33 16 6
172 191 192 188 183 175 227 255 217 223 146 139 22 88 114 86 65 87 95 111 114 72 17 71 119 311 327 340 343 348 348 336 354 16 95 48 51 45 33 17 25 27 9
158 172 183 173 187 208 206 193 211 218 169 148 64 98 132 150 102 64 112 136 142 311 314 303 306 319 322 325 335 333 333 355 22 22 119 38 21 20 18 17 30 31 24
181 175 168 189 201 204 198 207 220 229 236 210 187 171 180 194 186 165 52 194 336 346 319 306 326 331 344 336 334 345 355 49 56 76 66 34 4 3 29 33 18 7 6
187 209 209 206 209 229 196 183 222 231 220 246 271 256 252 248 255 235 273 281 278 304 333 335 343 349 355 357 2 8 26 104 85 55 48 38 2 349 13 17 18 15 24
192 166 204 202 232 199 200 204 214 212 234 257 281 247 193 206 232 329 285 279 292 306 314 329 352 356 0 0 2 8 47 130 99 24 6 350 2 13 19 13 3 0 0
191 221 217 206 234 207 196 210 218 229 235 252 283 238 213 232 245 296 312 296 297 281 299 332 340 343 352 357 0 6 36 173 263 327 322 320 333 348 349 8 6 358 3